Terug naar catalogus

STARLINK-5483

ActiefCommunicatieVLEO
NORAD 55643·PAYLOAD·🇺🇸 United States

Gelanceerd Feb 17, 2023 vanaf Vandenberg Space Force Base

Loading…

Volgende Passages (komende 24 uur)

TLE

VersSource: CelesTrak SupGP

Epoch: Sep 15, 2026, 01:53 UTC

1 55643C 23021R   26258.07895833 -.00053666  00000+0 -44982-2 0  2581
2 55643  70.0006  67.1181 0002889 270.1754 154.8134 14.98351090    12

Volg STARLINK-5483 in realtime met AllMySat

Download on the App Store